Weather Roundup
Issued by NWS

Home | Current Version | Previous Version | Graphics & Text | Print | Product List | Glossary Off
Versions: 1 2 3 4 5 6 7 8 9 10 11 12 13 14 15 16 17 18 19 20 21 22 23 24 25 26 27 28 29 30 31 32 33 34 35 36 37 38 39 40 41 42 43 44 45 46 47 48 49 50

000
NZUS93 KARX 170559
HRRWXR

CURRENT HOURLY OBSERVATIONS ACROSS
MUCH OF THE UPPER MISSISSIPPI VALLEY
NATIONAL WEATHER SERVICE LA CROSSE WI
100 AM CDT THU APR 17 2014


...SOUTHEAST MINNESOTA...


CITY           SKY/WX    TMP DP  RH WIND       PRES   REMARKS
ROCHESTER      LGT RAIN  44  33  65 S16G25    29.82R
ROCHESTER/MAYO CLOUDY    45  31  58 SE13G23   29.82S
WINONA         CLOUDY    50  30  46 SE9       29.87F
AUSTIN         DRIZZLE   37  36  93 W21G28    29.83R WCI  27
ALBERT LEA     CLOUDY    34  34 100 NW12G18   29.88R FOG     WCI  25
DODGE CENTER   DRIZZLE   45  39  81 SE6       29.82R
PRESTON        CLOUDY    47  32  56 S22G30    29.82F
OWATONNA       DRIZZLE   34  34 100 NW18      29.88R WCI  23
FARIBAULT      DRIZZLE   36  30  80 NW15      29.90R WCI  26
$$

...ELSEWHERE IN MINNESOTA...


CITY           SKY/WX    TMP DP  RH WIND       PRES   REMARKS
MINNEAPOLIS    LGT SNOW  28  28 100 N17       29.97R FOG     WCI  16
INTNL FALLS    MOCLDY    26   8  46 NE6       30.26S WCI  19
DULUTH         SNOW      27  23  85 NE22G28   30.11F VSB 1/2 WCI  13
RED WING       LGT RAIN  43  39  87 NE7       29.89S
REDWOOD FALLS  CLOUDY    29  24  82 N15G23    30.09R WCI  18
MANKATO        CLOUDY    30  27  86 N20G30    29.97R WCI  18
WORTHINGTON    CLOUDY    28  19  69 N23G29    30.08S WCI  14
FAIRMONT       CLOUDY    30  25  80 NW23G29   30.02R WCI  17
$$

...SOUTHWEST WISCONSIN...


CITY           SKY/WX    TMP DP  RH WIND       PRES   REMARKS
LA CROSSE      CLOUDY    50  29  44 SE18      29.90R
PRAIRIE DU CHI FAIR      49  26  41 SE18G24   29.91S
BOSCOBEL       CLOUDY    49  28  44 SE10G21   29.95S
LONE ROCK      NOT AVBL
PLATTEVILLE    CLOUDY    46  29  52 SE18      29.99S
FORT MC COY    CLOUDY    48  27  45 SE15G21   29.93S
VIROQUA        CLOUDY    45  30  55 SE21G29   29.90S
WIS DELLS      CLOUDY    45  28  50 SE16G23   30.01R
$$

...ELSEWHERE IN WISCONSIN...


CITY           SKY/WX    TMP DP  RH WIND       PRES   REMARKS
MILWAUKEE      MOCLDY    41  30  65 SE18      30.15F
MADISON        CLOUDY    45  28  51 MISG      30.05F
GREEN BAY      CLOUDY    40  27  59 SE18G26   30.17S WCI  31
EAU CLAIRE     NOT AVBL
BLACK RVR FLS  CLOUDY    47  29  50 E3        29.93R
MEDFORD        CLOUDY    36  27  69 SE12G22   30.00F WCI  27
WAUSAU         LGT SNOW  33  30  88 E13       30.06S FOG     WCI  24
WIS RAPIDS     CLOUDY    41  29  62 SE13G22   30.03F
MARSHFIELD     CLOUDY    39  29  67 E15G25    30.00S WCI  31
RICE LAKE      LGT RAIN  35  32  90 E9        29.99S WCI  27
$$

...NORTHEAST IOWA...


CITY           SKY/WX    TMP DP  RH WIND       PRES   REMARKS
WATERLOO       CLOUDY    45  40  82 SW20G25   29.89R
DUBUQUE        FAIR      43  28  55 S24       29.95S
DECORAH        CLOUDY    48  28  46 S20G26    29.85S
MASON CITY     CLOUDY    33  32  96 NW20G30   29.91R WCI  21
CHARLES CITY   CLOUDY    41  37  87 W22G28    29.87R
OELWEIN        CLOUDY   N/A N/A N/A S20       29.87R
$$

...ELSEWHERE IN IOWA...


CITY           SKY/WX    TMP DP  RH WIND       PRES   REMARKS
DES MOINES     CLOUDY    39  33  79 NW15G24   30.02R WCI  31
IOWA CITY      FAIR      48  29  47 S16G24    29.95S
FORT DODGE     CLOUDY    34  27  75 NW13G20   30.01R WCI  25
MARSHALLTOWN   CLOUDY    39  36  89 W24       29.95R WCI  28
CEDAR RAPIDS   CLOUDY    48  26  42 S17G26    29.91R
$$

...NORTHERN ILLINOIS...


CITY           SKY/WX    TMP DP  RH WIND       PRES   REMARKS
CHICAGO-OHARE  MOCLDY    43  23  45 SE14      30.15F
DUPAGE         FAIR      43  25  49 S14       30.14S
CHICAGO-MIDWAY MOCLDY    44  25  47 SE13G23   30.17F
MOLINE         FAIR      46  28  49 S16G26    30.00F
ROCKFORD       CLOUDY    43  28  55 SE18G24   30.11S
STERLING       CLOUDY    45  30  57 SE9G16    30.06S
PEORIA         FAIR      47  29  49 S16G25    30.10S
$$

NOTE: "FAIR" INDICATES FEW OR NO CLOUDS BELOW 12,000 FEET WITH NO
SIGNIFICANT WEATHER AND/OR OBSTRUCTIONS TO VISIBILITY. WIND
SPEEDS ARE IN MILES-PER-HOUR.



USA.gov is the U.S. government's official web portal to all federal, state and local government web resources and services.